DW6228 Weather Reports


Display with metric or nautical units.
time (UTC)temp
F
wind
direction
speed
MPH
gust
MPH
rain 1hr
in
rain 24hr
in
rain mn
in
humidity
%
barometer
mb
20260504141308 51 202 0.0 5.0 0.00 1.03 0.00 97 1013.0
20260504140327 51 320 0.0 0.0 0.00 1.03 0.00 97 1012.7
20260504130157 51 81 0.0 16.0 0.07 1.00 1.00 97 1011.9
20260504120218 52 296 0.0 8.0 0.03 0.62 0.63 97 1011.1
20260504081817 52 286 0.0 7.0 0.75 0.21 0.22 96 1007.1
20260504080835 52 301 1.0 7.0 0.03 0.20 0.20 96 1006.9
20260504050202 54 152 0.0 9.0 0.00 0.02 0.02 93 1005.4
20260504045207 54 289 0.0 0.0 0.00 0.02 0.02 91 1005.5
20260504043045 55 153 1.0 10.0 0.11 0.01 0.01 86 1005.3
20260504042106 56 216 0.0 10.0 0.00 0.00 0.00 81 1005.2
20260504034851 56 263 0.0 6.0 0.00 0.00 0.00 82 1005.1
20260504033822 56 291 0.0 13.0 0.00 0.00 0.00 83 1005.3
20260504032819 56 202 2.0 13.0 0.00 0.00 0.00 82 1005.4
20260504031828 56 328 3.0 13.0 0.00 0.00 0.00 82 1005.5
20260504025733 55 306 1.0 10.0 0.00 0.00 0.00 84 1005.4
20260504024755 55 306 1.0 16.0 0.00 0.00 0.00 84 1005.6
20260504023817 55 263 2.0 16.0 0.00 0.00 0.00 85 1005.6
20260504022805 54 221 2.0 13.0 0.00 0.00 0.00 85 1005.8
20260504021813 54 254 1.0 13.0 0.00 0.00 0.00 85 1006.0
20260504020759 54 213 2.0 10.0 0.00 0.00 0.00 86 1006.0
20260504014713 54 18 1.0 10.0 0.00 0.00 0.00 86 1006.3
20260504013702 54 218 1.0 12.0 0.00 0.00 0.00 87 1006.4
20260504012628 54 214 1.0 12.0 0.00 0.00 0.00 87 1006.4
20260504011631 53 100 1.0 10.0 0.00 0.00 0.00 88 1006.6
20260504010614 53 237 2.0 10.0 0.00 0.00 0.00 88 1006.5
20260504005618 53 199 1.0 10.0 0.00 0.00 0.00 88 1006.9
20260504004629 53 135 1.0 8.0 0.00 0.00 0.00 88 1006.6
20260504003633 52 308 1.0 10.0 0.00 0.00 0.00 89 1006.7
20260504002639 52 280 1.0 10.0 0.00 0.00 0.00 89 1006.9
20260504001605 51 22 1.0 9.0 0.00 0.01 0.00 89 1006.8
20260504000618 51 208 0.0 11.0 0.00 0.04 0.00 89 1006.8
20260503235551 51 277 2.0 11.0 0.00 0.07 0.00 89 1006.9
20260503234541 50 126 1.0 12.0 0.00 0.10 0.00 89 1007.0
20260503233537 50 282 2.0 12.0 0.00 0.10 0.00 88 1007.2
20260503231423 50 237 1.0 9.0 0.00 0.11 0.00 88 1007.3
20260503230426 50 263 1.0 13.0 0.00 0.12 0.00 87 1007.3
20260503225401 50 127 1.0 13.0 0.00 0.12 0.00 87 1007.2
20260503224413 50 304 2.0 11.0 0.00 0.12 0.00 87 1007.3
20260503222215 50 265 1.0 10.0 0.00 0.12 0.00 87 1007.4
20260503214818 49 208 1.0 9.0 0.00 0.13 0.00 89 1007.2
20260503213753 49 157 1.0 9.0 0.00 0.13 0.00 89 1007.1
20260503212743 48 320 1.0 9.0 0.00 0.13 0.00 89 1007.1
20260503210654 49 143 1.0 8.0 0.00 0.13 0.00 88 1007.2
20260503205714 49 55 1.0 8.0 0.00 0.13 0.00 88 1007.4
20260503204716 49 221 1.0 9.0 0.00 0.13 0.00 87 1007.3
20260503203726 49 241 1.0 9.0 0.00 0.13 0.00 87 1007.3
20260503202741 49 234 1.0 7.0 0.00 0.13 0.00 87 1007.4
20260503201732 49 302 1.0 9.0 0.00 0.14 0.00 86 1007.4
20260503200706 49 188 0.0 9.0 0.00 0.14 0.00 86 1007.6
20260503195703 49 155 0.0 8.0 0.00 0.17 0.00 86 1007.6
20260503194657 49 296 0.0 7.0 0.00 0.18 0.00 86 1007.5
20260503193651 50 307 1.0 7.0 0.00 0.18 0.00 85 1007.6
20260503191509 50 173 0.0 8.0 0.00 0.18 0.00 84 1007.6
20260503190506 50 312 1.0 8.0 0.00 0.18 0.00 85 1007.6
20260503185501 50 169 1.0 11.0 0.00 0.18 0.00 85 1007.7
20260503184433 50 214 1.0 11.0 0.00 0.18 0.00 85 1007.5
20260503183401 50 214 1.0 9.0 0.00 0.18 0.00 85 1007.6
20260503182406 50 185 1.0 9.0 0.00 0.18 0.00 85 1007.7
20260503175145 51 266 1.0 7.0 0.00 0.18 0.00 84 1008.1
20260503174115 51 311 1.0 7.0 0.00 0.18 0.00 84 1008.1
20260503173055 51 273 2.0 12.0 0.00 0.18 0.00 84 1008.2
20260503172112 51 237 1.0 12.0 0.00 0.18 0.00 84 1008.2
20260503171128 51 140 1.0 11.0 0.00 0.18 0.00 84 1008.2
20260503170122 51 217 2.0 11.0 0.00 0.18 0.00 83 1008.3